星链-37261(STARLINK-37261)

导读 | 豆包AI

STARLINK-37261(NORAD编号68567)是美国太空探索技术公司(SpaceX)星链(Starlink)项目的低轨互联网通信卫星,属于Starlink V1.0平台。该卫星运行在近地轨道,近地点高度约570.2公里、远地点约573.9公里,轨道倾角70.003°,轨道周期约96.1分钟。 作为星链星座的组成部分,它依托SpaceX的低轨卫星网络,为全球尤其是偏远区域提供高速低延迟互联网接入服务,同时支持商业通信与特殊行业应用,助力缩小全球数字鸿沟,是星链大规模星座部署中的一员。

基本信息
目录编号:
68567
目录名称:
STARLINK-37261
国际标识:
2026-070AB
轨道中心:
EARTH
卫星名称:
星链-37261
卫星全名:
星链-37261(STARLINK-37261)
卫星状态:
在轨 (已飞行12 天)
发射日期:
2026-04-02 UTC
国别 :
美国 (US)
星等 :
--
轨道信息
数据来源 国际轨道数据
星历时间: 2026-04-14T20:00:02+0800
5小时前
查看轨道信息
半长轴: 6678.776km
偏心率: 0.0001
轨道倾角: 53.158°
近地点辐角 75.574°
升交点赤经 204.818°
平近点角 100.556°
近地点: 299.971km
远地点: 301.307km
周期: 90.533分钟
每日圈数: 15.905871
详细信息
固有亮度:
5
最大亮度:
2.5
卫星平台:
Starlink V1.0
覆盖范围:
全球
运营商:
太空探索技术公司
运营商所在国:
美国
制造商(研发单位):
太空探索技术公司
制造商所在国:
美国
使用方式:
暂无
卫星简介
Starlink 计划是 SpaceX 推出的全球卫星互联网项目,通过发射低轨道卫星,为全球尤其是偏远地区提供高速、低延迟的互联网服务。自 2019 年起,Starlink 已部署数千颗卫星,旨在缩小全球数字鸿沟,推动互联网普及。该项目还为军事、航空等行业提供通信支持,带来广泛经济效益。
2D轨道图
3D轨道图
轨道高度分析图
轨道倾角分析图
轨道综合分析图
查看轨道综合分析图